Year,Month,Day,Hour,Minute,Value (Times are PST for insolation in W/m^2)
2010,10,06,00,00,0.00
2010,10,06,00,01,0.00
2010,10,06,00,02,0.00
2010,10,06,00,03,0.00
2010,10,06,00,04,0.00
2010,10,06,00,05,0.00
2010,10,06,00,06,0.00
2010,10,06,00,07,0.00
2010,10,06,00,08,0.00
2010,10,06,00,09,0.00
2010,10,06,00,10,0.00
2010,10,06,00,11,0.00
2010,10,06,00,12,0.00
2010,10,06,00,13,0.00
2010,10,06,00,14,0.00
2010,10,06,00,15,0.00
2010,10,06,00,16,0.00
2010,10,06,00,17,0.00
2010,10,06,00,18,0.00
2010,10,06,00,19,0.00
2010,10,06,00,20,0.00
2010,10,06,00,21,0.00
2010,10,06,00,22,0.00
2010,10,06,00,23,0.00
2010,10,06,00,24,0.00
2010,10,06,00,25,0.00
2010,10,06,00,26,0.00
2010,10,06,00,27,0.00
2010,10,06,00,28,0.00
2010,10,06,00,29,0.00
2010,10,06,00,30,0.00
2010,10,06,00,31,0.00
2010,10,06,00,32,0.00
2010,10,06,00,33,0.00
2010,10,06,00,34,0.00
2010,10,06,00,35,0.00
2010,10,06,00,36,0.00
2010,10,06,00,37,0.00
2010,10,06,00,38,0.00
2010,10,06,00,39,0.00
2010,10,06,00,40,0.00
2010,10,06,00,41,0.00
2010,10,06,00,42,0.00
2010,10,06,00,43,0.00
2010,10,06,00,44,0.00
2010,10,06,00,45,0.00
2010,10,06,00,46,0.00
2010,10,06,00,47,0.00
2010,10,06,00,48,0.00
2010,10,06,00,49,0.00
2010,10,06,00,50,0.00
2010,10,06,00,51,0.00
2010,10,06,00,52,0.00
2010,10,06,00,53,0.00
2010,10,06,00,54,0.00
2010,10,06,00,55,0.00
2010,10,06,00,56,0.00
2010,10,06,00,57,0.00
2010,10,06,00,58,0.00
2010,10,06,00,59,0.00
2010,10,06,01,00,0.00
2010,10,06,01,01,0.00
2010,10,06,01,02,0.00
2010,10,06,01,03,0.00
2010,10,06,01,04,0.00
2010,10,06,01,05,0.00
2010,10,06,01,06,0.00
2010,10,06,01,07,0.00
2010,10,06,01,08,0.00
2010,10,06,01,09,0.00
2010,10,06,01,10,0.00
2010,10,06,01,11,0.00
2010,10,06,01,12,0.00
2010,10,06,01,13,0.00
2010,10,06,01,14,0.00
2010,10,06,01,15,0.00
2010,10,06,01,16,0.00
2010,10,06,01,17,0.00
2010,10,06,01,18,0.00
2010,10,06,01,19,0.00
2010,10,06,01,20,0.00
2010,10,06,01,21,0.00
2010,10,06,01,22,0.00
2010,10,06,01,23,0.00
2010,10,06,01,24,0.00
2010,10,06,01,25,0.00
2010,10,06,01,26,0.00
2010,10,06,01,27,0.00
2010,10,06,01,28,0.00
2010,10,06,01,29,0.00
2010,10,06,01,30,0.00
2010,10,06,01,31,0.00
2010,10,06,01,32,0.00
2010,10,06,01,33,0.00
2010,10,06,01,34,0.00
2010,10,06,01,35,0.00
2010,10,06,01,36,0.00
2010,10,06,01,37,0.00
2010,10,06,01,38,0.00
2010,10,06,01,39,0.00
2010,10,06,01,40,0.00
2010,10,06,01,41,0.00
2010,10,06,01,42,0.00
2010,10,06,01,43,0.00
2010,10,06,01,44,0.00
2010,10,06,01,45,0.00
2010,10,06,01,46,0.00
2010,10,06,01,47,0.00
2010,10,06,01,48,0.00
2010,10,06,01,49,0.00
2010,10,06,01,50,0.00
2010,10,06,01,51,0.00
2010,10,06,01,52,0.00
2010,10,06,01,53,0.00
2010,10,06,01,54,0.00
2010,10,06,01,55,0.00
2010,10,06,01,56,0.00
2010,10,06,01,57,0.00
2010,10,06,01,58,0.00
2010,10,06,01,59,0.00
2010,10,06,02,00,0.00
2010,10,06,02,01,0.00
2010,10,06,02,02,0.00
2010,10,06,02,03,0.00
2010,10,06,02,04,0.00
2010,10,06,02,05,0.00
2010,10,06,02,06,0.00
2010,10,06,02,07,0.00
2010,10,06,02,08,0.00
2010,10,06,02,09,0.00
2010,10,06,02,10,0.00
2010,10,06,02,11,0.00
2010,10,06,02,12,0.00
2010,10,06,02,13,0.00
2010,10,06,02,14,0.00
2010,10,06,02,15,0.00
2010,10,06,02,16,0.00
2010,10,06,02,17,0.00
2010,10,06,02,18,0.00
2010,10,06,02,19,0.00
2010,10,06,02,20,0.00
2010,10,06,02,21,0.00
2010,10,06,02,22,0.00
2010,10,06,02,23,0.00
2010,10,06,02,24,0.00
2010,10,06,02,25,0.00
2010,10,06,02,26,0.00
2010,10,06,02,27,0.00
2010,10,06,02,28,0.00
2010,10,06,02,29,0.00
2010,10,06,02,30,0.00
2010,10,06,02,31,0.00
2010,10,06,02,32,0.00
2010,10,06,02,33,0.00
2010,10,06,02,34,0.00
2010,10,06,02,35,0.00
2010,10,06,02,36,0.00
2010,10,06,02,37,0.00
2010,10,06,02,38,0.00
2010,10,06,02,39,0.00
2010,10,06,02,40,0.00
2010,10,06,02,41,0.00
2010,10,06,02,42,0.00
2010,10,06,02,43,0.00
2010,10,06,02,44,0.00
2010,10,06,02,45,0.00
2010,10,06,02,46,0.00
2010,10,06,02,47,0.00
2010,10,06,02,48,0.00
2010,10,06,02,49,0.00
2010,10,06,02,50,0.00
2010,10,06,02,51,0.00
2010,10,06,02,52,0.00
2010,10,06,02,53,0.00
2010,10,06,02,54,0.00
2010,10,06,02,55,0.00
2010,10,06,02,56,0.00
2010,10,06,02,57,0.00
2010,10,06,02,58,0.00
2010,10,06,02,59,0.00
2010,10,06,03,00,0.00
2010,10,06,03,01,0.00
2010,10,06,03,02,0.00
2010,10,06,03,03,0.00
2010,10,06,03,04,0.00
2010,10,06,03,05,0.00
2010,10,06,03,06,0.00
2010,10,06,03,07,0.00
2010,10,06,03,08,0.00
2010,10,06,03,09,0.00
2010,10,06,03,10,0.00
2010,10,06,03,11,0.00
2010,10,06,03,12,0.00
2010,10,06,03,13,0.00
2010,10,06,03,14,0.00
2010,10,06,03,15,0.00
2010,10,06,03,16,0.00
2010,10,06,03,17,0.00
2010,10,06,03,18,0.00
2010,10,06,03,19,0.00
2010,10,06,03,20,0.00
2010,10,06,03,21,0.00
2010,10,06,03,22,0.00
2010,10,06,03,23,0.00
2010,10,06,03,24,0.00
2010,10,06,03,25,0.00
2010,10,06,03,26,0.00
2010,10,06,03,27,0.00
2010,10,06,03,28,0.00
2010,10,06,03,29,0.00
2010,10,06,03,30,0.00
2010,10,06,03,31,0.00
2010,10,06,03,32,0.00
2010,10,06,03,33,0.00
2010,10,06,03,34,0.00
2010,10,06,03,35,0.00
2010,10,06,03,36,0.00
2010,10,06,03,37,0.00
2010,10,06,03,38,0.00
2010,10,06,03,39,0.00
2010,10,06,03,40,0.00
2010,10,06,03,41,0.00
2010,10,06,03,42,0.00
2010,10,06,03,43,0.00
2010,10,06,03,44,0.00
2010,10,06,03,45,0.00
2010,10,06,03,46,0.00
2010,10,06,03,47,0.00
2010,10,06,03,48,0.00
2010,10,06,03,49,0.00
2010,10,06,03,50,0.00
2010,10,06,03,51,0.00
2010,10,06,03,52,0.00
2010,10,06,03,53,0.00
2010,10,06,03,54,0.00
2010,10,06,03,55,0.00
2010,10,06,03,56,0.00
2010,10,06,03,57,0.00
2010,10,06,03,58,0.00
2010,10,06,03,59,0.00
2010,10,06,04,00,0.00
2010,10,06,04,01,0.00
2010,10,06,04,02,0.00
2010,10,06,04,03,0.00
2010,10,06,04,04,0.00
2010,10,06,04,05,0.00
2010,10,06,04,06,0.00
2010,10,06,04,07,0.00
2010,10,06,04,08,0.00
2010,10,06,04,09,0.00
2010,10,06,04,10,0.00
2010,10,06,04,11,0.00
2010,10,06,04,12,0.00
2010,10,06,04,13,0.00
2010,10,06,04,14,0.00
2010,10,06,04,15,0.00
2010,10,06,04,16,0.00
2010,10,06,04,17,0.00
2010,10,06,04,18,0.00
2010,10,06,04,19,0.00
2010,10,06,04,20,0.00
2010,10,06,04,21,0.00
2010,10,06,04,22,0.00
2010,10,06,04,23,0.00
2010,10,06,04,24,0.00
2010,10,06,04,25,0.00
2010,10,06,04,26,0.00
2010,10,06,04,27,0.00
2010,10,06,04,28,0.00
2010,10,06,04,29,0.00
2010,10,06,04,30,0.00
2010,10,06,04,31,0.00
2010,10,06,04,32,0.00
2010,10,06,04,33,0.00
2010,10,06,04,34,0.00
2010,10,06,04,35,0.00
2010,10,06,04,36,0.00
2010,10,06,04,37,0.00
2010,10,06,04,38,0.00
2010,10,06,04,39,0.00
2010,10,06,04,40,0.00
2010,10,06,04,41,0.00
2010,10,06,04,42,0.00
2010,10,06,04,43,0.00
2010,10,06,04,44,0.00
2010,10,06,04,45,0.00
2010,10,06,04,46,0.00
2010,10,06,04,47,0.00
2010,10,06,04,48,0.00
2010,10,06,04,49,0.00
2010,10,06,04,50,0.00
2010,10,06,04,51,0.00
2010,10,06,04,52,0.00
2010,10,06,04,53,0.00
2010,10,06,04,54,0.00
2010,10,06,04,55,0.00
2010,10,06,04,56,0.00
2010,10,06,04,57,0.00
2010,10,06,04,58,0.00
2010,10,06,04,59,0.00
2010,10,06,05,00,0.00
2010,10,06,05,01,0.00
2010,10,06,05,02,0.00
2010,10,06,05,03,0.00
2010,10,06,05,04,0.00
2010,10,06,05,05,0.00
2010,10,06,05,06,0.00
2010,10,06,05,07,0.00
2010,10,06,05,08,0.00
2010,10,06,05,09,0.00
2010,10,06,05,10,0.00
2010,10,06,05,11,0.00
2010,10,06,05,12,0.00
2010,10,06,05,13,0.00
2010,10,06,05,14,0.00
2010,10,06,05,15,0.00
2010,10,06,05,16,0.00
2010,10,06,05,17,0.00
2010,10,06,05,18,0.00
2010,10,06,05,19,0.00
2010,10,06,05,20,0.00
2010,10,06,05,21,0.00
2010,10,06,05,22,0.00
2010,10,06,05,23,0.00
2010,10,06,05,24,0.00
2010,10,06,05,25,0.00
2010,10,06,05,26,0.00
2010,10,06,05,27,0.00
2010,10,06,05,28,0.00
2010,10,06,05,29,0.00
2010,10,06,05,30,0.00
2010,10,06,05,31,0.00
2010,10,06,05,32,0.00
2010,10,06,05,33,0.00
2010,10,06,05,34,0.00
2010,10,06,05,35,0.00
2010,10,06,05,36,0.00
2010,10,06,05,37,0.00
2010,10,06,05,38,0.00
2010,10,06,05,39,0.00
2010,10,06,05,40,0.00
2010,10,06,05,41,0.00
2010,10,06,05,42,0.00
2010,10,06,05,43,0.00
2010,10,06,05,44,0.00
2010,10,06,05,45,0.00
2010,10,06,05,46,0.00
2010,10,06,05,47,0.00
2010,10,06,05,48,0.00
2010,10,06,05,49,0.00
2010,10,06,05,50,0.00
2010,10,06,05,51,0.00
2010,10,06,05,52,0.00
2010,10,06,05,53,0.00
2010,10,06,05,54,0.00
2010,10,06,05,55,0.00
2010,10,06,05,56,0.00
2010,10,06,05,57,0.00
2010,10,06,05,58,0.00
2010,10,06,05,59,0.00
2010,10,06,06,00,0.00
2010,10,06,06,01,0.00
2010,10,06,06,02,0.00
2010,10,06,06,03,0.00
2010,10,06,06,04,0.00
2010,10,06,06,05,0.00
2010,10,06,06,06,0.00
2010,10,06,06,07,0.00
2010,10,06,06,08,0.00
2010,10,06,06,09,0.00
2010,10,06,06,10,0.00
2010,10,06,06,11,0.00
2010,10,06,06,12,0.00
2010,10,06,06,13,0.00
2010,10,06,06,14,0.00
2010,10,06,06,15,0.00
2010,10,06,06,16,0.00
2010,10,06,06,17,0.00
2010,10,06,06,18,0.00
2010,10,06,06,19,0.00
2010,10,06,06,20,0.00
2010,10,06,06,21,0.00
2010,10,06,06,22,0.00
2010,10,06,06,23,0.00
2010,10,06,06,24,0.00
2010,10,06,06,25,0.00
2010,10,06,06,26,0.00
2010,10,06,06,27,0.00
2010,10,06,06,28,0.00
2010,10,06,06,29,0.00
2010,10,06,06,30,0.00
2010,10,06,06,31,0.00
2010,10,06,06,32,0.00
2010,10,06,06,33,0.00
2010,10,06,06,34,0.00
2010,10,06,06,35,0.00
2010,10,06,06,36,0.00
2010,10,06,06,37,0.00
2010,10,06,06,38,0.00
2010,10,06,06,39,0.00
2010,10,06,06,40,0.00
2010,10,06,06,41,0.00
2010,10,06,06,42,0.00
2010,10,06,06,43,0.00
2010,10,06,06,44,0.00
2010,10,06,06,45,0.00
2010,10,06,06,46,0.00
2010,10,06,06,47,0.00
2010,10,06,06,48,0.00
2010,10,06,06,49,0.00
2010,10,06,06,50,0.00
2010,10,06,06,51,0.00
2010,10,06,06,52,0.00
2010,10,06,06,53,0.00
2010,10,06,06,54,0.00
2010,10,06,06,55,0.00
2010,10,06,06,56,0.00
2010,10,06,06,57,0.00
2010,10,06,06,58,0.00
2010,10,06,06,59,0.00
2010,10,06,07,00,0.00
2010,10,06,07,01,0.00
2010,10,06,07,02,0.00
2010,10,06,07,03,0.00
2010,10,06,07,04,0.00
2010,10,06,07,05,0.00
2010,10,06,07,06,0.00
2010,10,06,07,07,0.00
2010,10,06,07,08,0.00
2010,10,06,07,09,0.00
2010,10,06,07,10,0.00
2010,10,06,07,11,0.00
2010,10,06,07,12,0.00
2010,10,06,07,13,0.00
2010,10,06,07,14,0.00
2010,10,06,07,15,0.00
2010,10,06,07,16,0.00
2010,10,06,07,17,0.00
2010,10,06,07,18,0.00
2010,10,06,07,19,0.00
2010,10,06,07,20,0.00
2010,10,06,07,21,0.00
2010,10,06,07,22,0.20
2010,10,06,07,23,5.00
2010,10,06,07,24,5.00
2010,10,06,07,25,5.00
2010,10,06,07,26,5.00
2010,10,06,07,27,5.10
2010,10,06,07,28,7.00
2010,10,06,07,29,7.00
2010,10,06,07,30,7.00
2010,10,06,07,31,7.10
2010,10,06,07,32,9.00
2010,10,06,07,33,9.00
2010,10,06,07,34,9.00
2010,10,06,07,35,11.00
2010,10,06,07,36,11.00
2010,10,06,07,37,12.00
2010,10,06,07,38,19.00
2010,10,06,07,39,23.10
2010,10,06,07,40,25.10
2010,10,06,07,41,26.00
2010,10,06,07,42,24.90
2010,10,06,07,43,23.00
2010,10,06,07,44,23.10
2010,10,06,07,45,26.30
2010,10,06,07,46,32.20
2010,10,06,07,47,37.10
2010,10,06,07,48,39.00
2010,10,06,07,49,36.90
2010,10,06,07,50,34.70
2010,10,06,07,51,29.60
2010,10,06,07,52,23.10
2010,10,06,07,53,25.00
2010,10,06,07,54,40.00
2010,10,06,07,55,54.00
2010,10,06,07,56,56.20
2010,10,06,07,57,60.00
2010,10,06,07,58,62.00
2010,10,06,07,59,63.10
2010,10,06,08,00,65.20
2010,10,06,08,01,69.00
2010,10,06,08,02,70.10
2010,10,06,08,03,72.00
2010,10,06,08,04,74.20
2010,10,06,08,05,77.10
2010,10,06,08,06,79.20
2010,10,06,08,07,83.10
2010,10,06,08,08,84.10
2010,10,06,08,09,86.00
2010,10,06,08,10,90.00
2010,10,06,08,11,91.20
2010,10,06,08,12,95.10
2010,10,06,08,13,97.00
2010,10,06,08,14,97.20
2010,10,06,08,15,102.00
2010,10,06,08,16,104.00
2010,10,06,08,17,105.00
2010,10,06,08,18,105.00
2010,10,06,08,19,111.10
2010,10,06,08,20,113.10
2010,10,06,08,21,114.10
2010,10,06,08,22,116.00
2010,10,06,08,23,118.10
2010,10,06,08,24,120.10
2010,10,06,08,25,121.20
2010,10,06,08,26,125.00
2010,10,06,08,27,125.10
2010,10,06,08,28,127.20
2010,10,06,08,29,130.00
2010,10,06,08,30,132.10
2010,10,06,08,31,134.00
2010,10,06,08,32,135.20
2010,10,06,08,33,139.10
2010,10,06,08,34,141.00
2010,10,06,08,35,141.20
2010,10,06,08,36,144.20
2010,10,06,08,37,148.00
2010,10,06,08,38,149.10
2010,10,06,08,39,151.10
2010,10,06,08,40,153.10
2010,10,06,08,41,155.10
2010,10,06,08,42,156.20
2010,10,06,08,43,160.10
2010,10,06,08,44,162.10
2010,10,06,08,45,163.00
2010,10,06,08,46,167.00
2010,10,06,08,47,169.10
2010,10,06,08,48,171.00
2010,10,06,08,49,172.20
2010,10,06,08,50,176.10
2010,10,06,08,51,178.00
2010,10,06,08,52,178.10
2010,10,06,08,53,181.10
2010,10,06,08,54,183.00
2010,10,06,08,55,185.20
2010,10,06,08,56,188.10
2010,10,06,08,57,190.20
2010,10,06,08,58,193.10
2010,10,06,08,59,195.10
2010,10,06,09,00,197.10
2010,10,06,09,01,199.10
2010,10,06,09,02,202.10
2010,10,06,09,03,204.10
2010,10,06,09,04,206.20
2010,10,06,09,05,209.10
2010,10,06,09,06,211.10
2010,10,06,09,07,213.10
2010,10,06,09,08,214.20
2010,10,06,09,09,218.10
2010,10,06,09,10,220.00
2010,10,06,09,11,223.10
2010,10,06,09,12,225.00
2010,10,06,09,13,227.10
2010,10,06,09,14,229.20
2010,10,06,09,15,232.10
2010,10,06,09,16,234.10
2010,10,06,09,17,236.20
2010,10,06,09,18,239.10
2010,10,06,09,19,241.10
2010,10,06,09,20,243.10
2010,10,06,09,21,246.10
2010,10,06,09,22,248.20
2010,10,06,09,23,251.20
2010,10,06,09,24,255.20
2010,10,06,09,25,258.00
2010,10,06,09,26,258.30
2010,10,06,09,27,264.20
2010,10,06,09,28,267.10
2010,10,06,09,29,269.00
2010,10,06,09,30,271.00
2010,10,06,09,31,272.10
2010,10,06,09,32,274.20
2010,10,06,09,33,278.00
2010,10,06,09,34,279.10
2010,10,06,09,35,281.20
2010,10,06,09,36,285.10
2010,10,06,09,37,288.10
2010,10,06,09,38,290.00
2010,10,06,09,39,294.00
2010,10,06,09,40,295.20
2010,10,06,09,41,299.10
2010,10,06,09,42,301.10
2010,10,06,09,43,304.10
2010,10,06,09,44,306.10
2010,10,06,09,45,309.20
2010,10,06,09,46,313.10
2010,10,06,09,47,315.10
2010,10,06,09,48,318.10
2010,10,06,09,49,320.10
2010,10,06,09,50,323.30
2010,10,06,09,51,329.10
2010,10,06,09,52,330.00
2010,10,06,09,53,336.10
2010,10,06,09,54,338.10
2010,10,06,09,55,341.10
2010,10,06,09,56,343.20
2010,10,06,09,57,348.20
2010,10,06,09,58,352.00
2010,10,06,09,59,353.20
2010,10,06,10,00,357.10
2010,10,06,10,01,359.10
2010,10,06,10,02,362.20
2010,10,06,10,03,366.00
2010,10,06,10,04,367.20
2010,10,06,10,05,371.10
2010,10,06,10,06,374.10
2010,10,06,10,07,376.00
2010,10,06,10,08,378.10
2010,10,06,10,09,380.10
2010,10,06,10,10,383.10
2010,10,06,10,11,385.10
2010,10,06,10,12,388.00
2010,10,06,10,13,388.20
2010,10,06,10,14,392.20
2010,10,06,10,15,396.00
2010,10,06,10,16,396.00
2010,10,06,10,17,396.20
2010,10,06,10,18,401.10
2010,10,06,10,19,403.00
2010,10,06,10,20,404.10
2010,10,06,10,21,406.10
2010,10,06,10,22,408.10
2010,10,06,10,23,411.10
2010,10,06,10,24,413.10
2010,10,06,10,25,415.10
2010,10,06,10,26,417.10
2010,10,06,10,27,420.10
2010,10,06,10,28,422.10
2010,10,06,10,29,424.00
2010,10,06,10,30,425.10
2010,10,06,10,31,427.10
2010,10,06,10,32,429.10
2010,10,06,10,33,431.20
2010,10,06,10,34,434.10
2010,10,06,10,35,436.10
2010,10,06,10,36,438.00
2010,10,06,10,37,438.20
2010,10,06,10,38,441.10
2010,10,06,10,39,443.10
2010,10,06,10,40,445.10
2010,10,06,10,41,446.10
2010,10,06,10,42,448.10
2010,10,06,10,43,450.10
2010,10,06,10,44,452.20
2010,10,06,10,45,455.10
2010,10,06,10,46,457.10
2010,10,06,10,47,459.10
2010,10,06,10,48,461.00
2010,10,06,10,49,462.10
2010,10,06,10,50,464.00
2010,10,06,10,51,464.00
2010,10,06,10,52,464.20
2010,10,06,10,53,469.10
2010,10,06,10,54,471.10
2010,10,06,10,55,473.10
2010,10,06,10,56,475.10
2010,10,06,10,57,476.40
2010,10,06,10,58,483.00
2010,10,06,10,59,482.00
2010,10,06,11,00,482.40
2010,10,06,11,01,489.70
2010,10,06,11,02,485.10
2010,10,06,11,03,487.10
2010,10,06,11,04,489.10
2010,10,06,11,05,492.00
2010,10,06,11,06,492.10
2010,10,06,11,07,494.00
2010,10,06,11,08,494.10
2010,10,06,11,09,497.10
2010,10,06,11,10,499.10
2010,10,06,11,11,501.10
2010,10,06,11,12,503.10
2010,10,06,11,13,504.00
2010,10,06,11,14,504.20
2010,10,06,11,15,508.00
2010,10,06,11,16,508.10
2010,10,06,11,17,510.10
2010,10,06,11,18,512.00
2010,10,06,11,19,513.00
2010,10,06,11,20,513.10
2010,10,06,11,21,515.10
2010,10,06,11,22,517.20
2010,10,06,11,23,520.00
2010,10,06,11,24,520.10
2010,10,06,11,25,522.00
2010,10,06,11,26,522.20
2010,10,06,11,27,526.00
2010,10,06,11,28,526.10
2010,10,06,11,29,527.00
2010,10,06,11,30,527.20
2010,10,06,11,31,531.00
2010,10,06,11,32,531.10
2010,10,06,11,33,533.00
2010,10,06,11,34,534.00
2010,10,06,11,35,534.10
2010,10,06,11,36,536.10
2010,10,06,11,37,538.10
2010,10,06,11,38,540.00
2010,10,06,11,39,540.60
2010,10,06,11,40,551.50
2010,10,06,11,41,543.00
2010,10,06,11,42,543.00
2010,10,06,11,43,543.20
2010,10,06,11,44,547.00
2010,10,06,11,45,548.00
2010,10,06,11,46,548.20
2010,10,06,11,47,552.00
2010,10,06,11,48,552.10
2010,10,06,11,49,554.00
2010,10,06,11,50,554.20
2010,10,06,11,51,557.00
2010,10,06,11,52,557.00
2010,10,06,11,53,557.20
2010,10,06,11,54,561.00
2010,10,06,11,55,561.00
2010,10,06,11,56,561.10
2010,10,06,11,57,563.00
2010,10,06,11,58,564.10
2010,10,06,11,59,566.00
2010,10,06,12,00,566.00
2010,10,06,12,01,566.10
2010,10,06,12,02,568.00
2010,10,06,12,03,568.10
2010,10,06,12,04,570.00
2010,10,06,12,05,571.10
2010,10,06,12,06,573.00
2010,10,06,12,07,573.10
2010,10,06,12,08,575.00
2010,10,06,12,09,575.00
2010,10,06,12,10,575.10
2010,10,06,12,11,577.00
2010,10,06,12,12,577.00
2010,10,06,12,13,578.10
2010,10,06,12,14,580.00
2010,10,06,12,15,580.10
2010,10,06,12,16,582.00
2010,10,06,12,17,582.10
2010,10,06,12,18,584.20
2010,10,06,12,19,586.80
2010,10,06,12,20,584.20
2010,10,06,12,21,587.10
2010,10,06,12,22,588.90
2010,10,06,12,23,587.10
2010,10,06,12,24,589.00
2010,10,06,12,25,589.10
2010,10,06,12,26,591.00
2010,10,06,12,27,591.00
2010,10,06,12,28,591.00
2010,10,06,12,29,592.00
2010,10,06,12,30,592.00
2010,10,06,12,31,591.20
2010,10,06,12,32,593.90
2010,10,06,12,33,592.00
2010,10,06,12,34,592.10
2010,10,06,12,35,594.00
2010,10,06,12,36,594.10
2010,10,06,12,37,596.00
2010,10,06,12,38,596.10
2010,10,06,12,39,598.00
2010,10,06,12,40,597.90
2010,10,06,12,41,596.10
2010,10,06,12,42,598.00
2010,10,06,12,43,598.00
2010,10,06,12,44,598.10
2010,10,06,12,45,599.00
2010,10,06,12,46,599.00
2010,10,06,12,47,599.10
2010,10,06,12,48,600.90
2010,10,06,12,49,599.00
2010,10,06,12,50,599.10
2010,10,06,12,51,601.00
2010,10,06,12,52,601.00
2010,10,06,12,53,601.10
2010,10,06,12,54,602.90
2010,10,06,12,55,601.00
2010,10,06,12,56,601.00
2010,10,06,12,57,601.10
2010,10,06,12,58,603.00
2010,10,06,12,59,603.00
2010,10,06,13,00,603.00
2010,10,06,13,01,603.10
2010,10,06,13,02,605.00
2010,10,06,13,03,604.90
2010,10,06,13,04,603.10
2010,10,06,13,05,604.90
2010,10,06,13,06,603.00
2010,10,06,13,07,603.00
2010,10,06,13,08,603.10
2010,10,06,13,09,604.90
2010,10,06,13,10,603.10
2010,10,06,13,11,604.90
2010,10,06,13,12,603.00
2010,10,06,13,13,603.10
2010,10,06,13,14,605.00
2010,10,06,13,15,605.00
2010,10,06,13,16,604.90
2010,10,06,13,17,603.00
2010,10,06,13,18,603.00
2010,10,06,13,19,603.00
2010,10,06,13,20,603.00
2010,10,06,13,21,603.00
2010,10,06,13,22,603.00
2010,10,06,13,23,603.10
2010,10,06,13,24,604.90
2010,10,06,13,25,603.00
2010,10,06,13,26,602.90
2010,10,06,13,27,601.10
2010,10,06,13,28,602.90
2010,10,06,13,29,601.00
2010,10,06,13,30,601.00
2010,10,06,13,31,601.10
2010,10,06,13,32,602.90
2010,10,06,13,33,600.90
2010,10,06,13,34,599.00
2010,10,06,13,35,599.00
2010,10,06,13,36,599.00
2010,10,06,13,37,599.00
2010,10,06,13,38,599.00
2010,10,06,13,39,598.10
2010,10,06,13,40,599.00
2010,10,06,13,41,599.00
2010,10,06,13,42,598.00
2010,10,06,13,43,597.90
2010,10,06,13,44,596.00
2010,10,06,13,45,596.00
2010,10,06,13,46,596.00
2010,10,06,13,47,595.80
2010,10,06,13,48,592.10
2010,10,06,13,49,594.00
2010,10,06,13,50,593.90
2010,10,06,13,51,592.00
2010,10,06,13,52,591.00
2010,10,06,13,53,591.00
2010,10,06,13,54,591.80
2010,10,06,13,55,589.00
2010,10,06,13,56,588.80
2010,10,06,13,57,585.10
2010,10,06,13,58,586.90
2010,10,06,13,59,585.00
2010,10,06,14,00,584.90
2010,10,06,14,01,584.00
2010,10,06,14,02,585.00
2010,10,06,14,03,584.00
2010,10,06,14,04,584.00
2010,10,06,14,05,583.80
2010,10,06,14,06,580.10
2010,10,06,14,07,581.90
2010,10,06,14,08,580.00
2010,10,06,14,09,579.90
2010,10,06,14,10,577.90
2010,10,06,14,11,577.00
2010,10,06,14,12,576.90
2010,10,06,14,13,575.00
2010,10,06,14,14,575.00
2010,10,06,14,15,575.00
2010,10,06,14,16,574.90
2010,10,06,14,17,572.90
2010,10,06,14,18,571.00
2010,10,06,14,19,569.90
2010,10,06,14,20,568.00
2010,10,06,14,21,568.00
2010,10,06,14,22,568.00
2010,10,06,14,23,568.00
2010,10,06,14,24,567.80
2010,10,06,14,25,564.00
2010,10,06,14,26,563.00
2010,10,06,14,27,561.00
2010,10,06,14,28,560.90
2010,10,06,14,29,558.90
2010,10,06,14,30,557.10
2010,10,06,14,31,559.00
2010,10,06,14,32,558.80
2010,10,06,14,33,555.00
2010,10,06,14,34,553.90
2010,10,06,14,35,551.90
2010,10,06,14,36,549.80
2010,10,06,14,37,547.00
2010,10,06,14,38,547.00
2010,10,06,14,39,546.90
2010,10,06,14,40,545.00
2010,10,06,14,41,544.90
2010,10,06,14,42,542.90
2010,10,06,14,43,540.90
2010,10,06,14,44,539.90
2010,10,06,14,45,537.90
2010,10,06,14,46,535.90
2010,10,06,14,47,534.00
2010,10,06,14,48,533.90
2010,10,06,14,49,532.90
2010,10,06,14,50,531.00
2010,10,06,14,51,530.90
2010,10,06,14,52,528.90
2010,10,06,14,53,526.90
2010,10,06,14,54,525.90
2010,10,06,14,55,523.90
2010,10,06,14,56,522.00
2010,10,06,14,57,521.80
2010,10,06,14,58,518.90
2010,10,06,14,59,517.10
2010,10,06,15,00,518.80
2010,10,06,15,01,515.00
2010,10,06,15,02,514.90
2010,10,06,15,03,513.00
2010,10,06,15,04,511.80
2010,10,06,15,05,508.00
2010,10,06,15,06,508.00
2010,10,06,15,07,507.80
2010,10,06,15,08,504.00
2010,10,06,15,09,504.00
2010,10,06,15,10,504.00
2010,10,06,15,11,503.90
2010,10,06,15,12,503.00
2010,10,06,15,13,502.50
2010,10,06,15,14,494.00
2010,10,06,15,15,493.80
2010,10,06,15,16,490.00
2010,10,06,15,17,488.90
2010,10,06,15,18,486.90
2010,10,06,15,19,484.90
2010,10,06,15,20,482.00
2010,10,06,15,21,481.90
2010,10,06,15,22,480.10
2010,10,06,15,23,483.00
2010,10,06,15,24,482.00
2010,10,06,15,25,481.50
2010,10,06,15,26,472.80
2010,10,06,15,27,469.00
2010,10,06,15,28,468.80
2010,10,06,15,29,465.90
2010,10,06,15,30,463.90
2010,10,06,15,31,462.00
2010,10,06,15,32,460.90
2010,10,06,15,33,458.80
2010,10,06,15,34,455.10
2010,10,06,15,35,456.80
2010,10,06,15,36,451.90
2010,10,06,15,37,449.90
2010,10,06,15,38,448.00
2010,10,06,15,39,447.80
2010,10,06,15,40,444.90
2010,10,06,15,41,442.90
2010,10,06,15,42,440.90
2010,10,06,15,43,439.00
2010,10,06,15,44,437.90
2010,10,06,15,45,435.80
2010,10,06,15,46,432.00
2010,10,06,15,47,430.90
2010,10,06,15,48,428.80
2010,10,06,15,49,425.00
2010,10,06,15,50,423.90
2010,10,06,15,51,422.00
2010,10,06,15,52,421.80
2010,10,06,15,53,417.90
2010,10,06,15,54,416.90
2010,10,06,15,55,414.90
2010,10,06,15,56,412.90
2010,10,06,15,57,410.90
2010,10,06,15,58,408.00
2010,10,06,15,59,407.80
2010,10,06,16,00,403.80
2010,10,06,16,01,401.00
2010,10,06,16,02,400.80
2010,10,06,16,03,397.00
2010,10,06,16,04,395.80
2010,10,06,16,05,391.80
2010,10,06,16,06,388.00
2010,10,06,16,07,386.90
2010,10,06,16,08,384.90
2010,10,06,16,09,382.90
2010,10,06,16,10,380.90
2010,10,06,16,11,377.90
2010,10,06,16,12,375.90
2010,10,06,16,13,374.00
2010,10,06,16,14,373.80
2010,10,06,16,15,368.90
2010,10,06,16,16,365.90
2010,10,06,16,17,363.90
2010,10,06,16,18,361.90
2010,10,06,16,19,360.00
2010,10,06,16,20,358.80
2010,10,06,16,21,354.90
2010,10,06,16,22,352.90
2010,10,06,16,23,349.80
2010,10,06,16,24,346.00
2010,10,06,16,25,345.80
2010,10,06,16,26,340.90
2010,10,06,16,27,339.00
2010,10,06,16,28,337.90
2010,10,06,16,29,336.00
2010,10,06,16,30,331.90
2010,10,06,16,31,329.90
2010,10,06,16,32,326.80
2010,10,06,16,33,323.00
2010,10,06,16,34,322.90
2010,10,06,16,35,319.80
2010,10,06,16,36,316.00
2010,10,06,16,37,314.90
2010,10,06,16,38,312.90
2010,10,06,16,39,310.90
2010,10,06,16,40,307.80
2010,10,06,16,41,303.90
2010,10,06,16,42,302.00
2010,10,06,16,43,301.00
2010,10,06,16,44,300.70
2010,10,06,16,45,294.90
2010,10,06,16,46,291.90
2010,10,06,16,47,289.90
2010,10,06,16,48,286.90
2010,10,06,16,49,284.80
2010,10,06,16,50,280.90
2010,10,06,16,51,279.00
2010,10,06,16,52,277.80
2010,10,06,16,53,273.90
2010,10,06,16,54,271.80
2010,10,06,16,55,268.90
2010,10,06,16,56,266.80
2010,10,06,16,57,263.90
2010,10,06,16,58,261.80
2010,10,06,16,59,257.90
2010,10,06,17,00,254.90
2010,10,06,17,01,252.90
2010,10,06,17,02,250.00
2010,10,06,17,03,249.80
2010,10,06,17,04,245.90
2010,10,06,17,05,243.90
2010,10,06,17,06,240.90
2010,10,06,17,07,238.90
2010,10,06,17,08,235.90
2010,10,06,17,09,233.80
2010,10,06,17,10,229.90
2010,10,06,17,11,229.00
2010,10,06,17,12,228.70
2010,10,06,17,13,222.90
2010,10,06,17,14,219.90
2010,10,06,17,15,217.80